{"data":{"norad_id":56756,"intl_designator":"2023-074A","name":"KONDOR-FKA NO. 1","alt_names":[],"object_type":"PAYLOAD","status":"ACTIVE","operator":null,"country":"CIS","launch_date":"2023-05-26","launch_site_code":"VOSTO","launch_vehicle":null,"mission":null,"orbit_class":"UNKNOWN","rcs_meters":null,"size_class":null,"mass_kg":null,"dimensions":null,"purposes":[],"wikipedia_slug":null,"has_3d_model":false,"image_url":null,"decayed_at":null,"tle_current":{"epoch":"2026-05-25T04:11:34.033344Z","epoch_age_seconds":59698,"freshness":"FRESH","line1":"1 56756U 23074A   26145.17469946  .00003281  00000+0  15663-3 0  9996","line2":"2 56756  97.4431 340.0643 0001747  93.4079 266.7356 15.19749649166193","mean_motion":15.19749649,"eccentricity":0.0001747,"inclination_deg":97.4431,"raan_deg":340.0643,"arg_perigee_deg":93.4079,"mean_anomaly_deg":266.7356,"bstar":0.00015663,"rev_number":16619,"period_min":94.752448269853,"perigee_km":505.39383642208,"apogee_km":507.79936234171,"semimajor_km":6884.7335993819,"source":"CELESTRAK","updated_at":"2026-05-25T13:37:59.663041Z"}}}